Terminal Aerodrome Forecast
Issued by NWS Sioux Falls, SD

Home | Current Version | Previous Version | Graphics & Text | Print | Product List | Glossary On
Versions: 1 2 3 4 5 6 7 8 9 10 11 12 13 14 15 16 17 18 19 20 21 22 23 24 25 26 27 28 29 30
000
FTUS43 KFSD 250500
TAFSUX
TAF
KSUX 250526Z 2506/2606 15014G21KT P6SM SCT100 BKN200
      TEMPO 2506/2508 21016G28KT -SHRA
     FM251300 18009KT P6SM SCT015
     FM251700 27010KT P6SM SCT025
      TEMPO 2517/2520 BKN025
     FM252000 32010KT P6SM BKN035
     FM260100 34005KT P6SM FEW035=

USA.gov is the U.S. government's official web portal to all federal, state and local government web resources and services.